GW6425 Weather Reports


time (UTC)temp
C
wind
direction
speed
KPH
gust
KPH
rain 1hr
cm
rain 24hr
cm
rain mn
cm
humidity
%
barometer
mb
20260509054656 30 73 3.2 3.2 0.00 0.00 1.17 79 1009.5
20260509054158 30 97 4.8 4.8 0.00 0.00 1.17 80 1009.5
20260509053656 30 75 3.2 3.2 0.00 0.00 1.17 80 1009.6
20260509053156 30 96 3.2 4.8 0.00 0.00 1.17 80 1009.7
20260509052656 30 88 6.4 11.3 0.00 0.00 1.17 80 1009.6
20260509052156 30 113 3.2 3.2 0.00 0.00 1.17 81 1009.6
20260509051656 30 197 1.6 3.2 0.00 0.00 1.17 81 1009.6
20260509051156 30 155 3.2 3.2 0.00 0.00 1.17 81 1009.8
20260509050656 30 213 3.2 4.8 0.00 0.00 1.17 82 1009.9
20260509050156 30 212 3.2 4.8 0.00 0.00 1.17 83 1009.8
20260509045656 29 207 3.2 8.0 0.00 0.00 1.17 83 1009.8
20260509045156 29 287 3.2 6.4 0.00 0.00 1.17 83 1009.7
20260509044656 28 207 8.0 12.9 0.00 0.00 1.17 83 1009.6
20260509044156 28 94 3.2 6.4 0.00 0.00 1.17 85 1009.6
20260509043656 28 188 4.8 6.4 0.00 0.00 1.17 87 1009.6
20260509043156 28 173 3.2 4.8 0.00 0.00 1.17 89 1009.7
20260509042657 28 224 3.2 8.0 0.00 0.00 1.17 89 1009.8
20260509042156 28 173 3.2 4.8 0.00 0.00 1.17 89 1009.9
20260509041656 28 114 3.2 3.2 0.00 0.00 1.17 89 1010.0
20260509041156 27 212 1.6 1.6 0.00 0.00 1.17 91 1010.0
20260509040656 27 70 3.2 4.8 0.00 0.00 1.17 91 1010.1
20260509040156 27 62 3.2 3.2 0.00 0.00 1.17 93 1010.1
20260509035656 27 357 3.2 3.2 0.00 0.00 1.17 93 1010.0
20260509035156 26 103 1.6 3.2 0.00 0.00 1.17 94 1010.0
20260509034656 26 99 3.2 3.2 0.00 0.00 1.17 95 1009.9
20260509034156 26 78 3.2 3.2 0.00 0.00 1.17 95 1009.8
20260509033656 26 351 1.6 1.6 0.00 0.00 1.17 96 1009.7
20260509033159 26 77 3.2 4.8 0.00 0.00 1.17 96 1009.6
20260509032656 26 85 4.8 6.4 0.03 0.00 1.17 96 1009.6
20260509032156 26 53 3.2 3.2 0.08 0.00 1.17 97 1009.4
20260509031656 26 101 3.2 3.2 0.08 0.00 1.17 97 1009.3
20260509031156 26 85 3.2 4.8 0.10 0.00 1.17 97 1009.3
20260509030656 26 136 1.6 3.2 0.10 0.00 1.17 97 1009.2
20260509030156 26 26 1.6 1.6 0.41 0.00 1.17 97 1009.2
20260509025656 26 356 1.6 3.2 0.41 0.00 1.17 97 1009.1
20260509025156 26 12 1.6 3.2 0.41 0.00 1.17 97 1009.2
20260509024656 26 355 1.6 3.2 0.41 0.00 1.17 97 1009.3
20260509024156 26 102 0.0 1.6 0.41 0.00 1.17 97 1009.4
20260509023656 26 283 1.6 1.6 0.38 0.00 1.17 97 1009.3
20260509023156 26 266 1.6 3.2 0.38 0.00 1.17 97 1009.4
20260509022656 26 337 3.2 3.2 0.38 0.00 1.17 97 1009.7
20260509022157 26 313 3.2 3.2 0.30 0.00 1.14 97 1009.7
20260509021656 26 359 1.6 3.2 0.30 0.00 1.14 97 1009.6
20260509021156 26 0 1.6 3.2 0.00 0.00 1.14 97 1009.6
20260509020656 26 307 1.6 3.2 0.00 0.00 1.07 97 1009.5
20260509020156 26 238 1.6 1.6 0.00 0.00 1.07 97 1009.4
20260509015656 26 111 3.2 3.2 0.00 0.00 0.76 97 1009.4
20260509015156 26 32 1.6 3.2 0.00 0.00 0.76 97 1009.0
20260509014656 26 208 3.2 4.8 0.00 0.00 0.76 97 1009.0
20260509014156 26 268 1.6 1.6 0.00 0.00 0.76 97 1008.9
20260509013656 26 260 1.6 3.2 0.00 0.00 0.76 97 1008.8
20260509013156 26 246 3.2 3.2 0.00 0.00 0.76 97 1008.7
20260509012656 26 263 3.2 3.2 0.00 0.00 0.76 97 1008.5
20260509012157 26 232 1.6 1.6 0.00 0.00 0.76 97 1008.4
20260509011656 26 182 1.6 3.2 0.00 0.00 0.76 97 1008.2
20260509011157 26 258 1.6 3.2 0.00 0.00 0.76 97 1008.2
20260509010658 26 237 1.6 3.2 0.00 0.00 0.76 97 1008.1
20260509010156 26 212 3.2 3.2 0.00 0.00 0.76 97 1008.0
20260509005657 26 302 1.6 3.2 0.00 0.00 0.76 97 1007.9
20260509005156 26 229 3.2 4.8 0.00 0.00 0.76 97 1007.9
20260509004656 26 198 3.2 3.2 0.00 0.00 0.76 97 1007.8
20260509004156 26 229 3.2 3.2 0.00 0.00 0.76 97 1007.7
20260509003656 26 234 3.2 3.2 0.00 0.00 0.76 97 1007.6
20260509003157 26 209 3.2 3.2 0.00 0.00 0.76 96 1007.5
20260509002656 26 206 1.6 3.2 0.15 0.00 0.76 96 1007.4
20260509002156 26 217 3.2 3.2 0.15 0.00 0.76 96 1007.4
20260509001657 26 197 3.2 3.2 0.76 0.00 0.76 96 1007.3
20260509001156 26 217 1.6 3.2 0.76 0.00 0.76 96 1007.1
20260509000656 26 206 3.2 3.2 0.76 0.00 0.76 96 1007.1
20260509000156 26 207 4.8 4.8 0.76 0.00 0.76 96 1007.1
20260508235657 26 217 3.2 3.2 0.76 0.00 0.76 95 1007.2
20260508235158 26 237 1.6 3.2 0.76 0.00 0.76 95 1007.2
20260508234657 26 261 1.6 3.2 0.76 0.00 0.76 95 1007.2
20260508234156 26 212 3.2 3.2 0.76 0.00 0.76 95 1007.1
20260508233656 26 232 3.2 3.2 0.76 0.00 0.76 94 1007.2
20260508233156 26 207 3.2 3.2 0.76 0.00 0.76 94 1007.3
20260508232656 26 223 3.2 3.2 0.61 0.00 0.76 94 1007.3
20260508232156 27 249 1.6 3.2 0.61 0.00 0.76 93 1007.3
20260508231657 27 210 3.2 4.8 0.03 0.00 0.76 93 1007.4
20260508231156 27 341 3.2 3.2 0.00 0.00 0.61 92 1007.5
20260508230656 27 80 3.2 3.2 0.00 0.00 0.03 90 1007.4
20260508230156 27 107 1.6 1.6 0.00 0.00 0.00 89 1007.2
20260508225656 27 37 0.0 1.6 0.00 0.00 0.00 89 1007.1
20260508225201 27 28 1.6 3.2 0.00 0.00 0.00 88 1007.1
20260508224656 27 75 0.0 1.6 0.00 0.00 0.00 87 1006.9
20260508224156 27 328 1.6 1.6 0.00 0.00 0.00 86 1006.9
20260508223657 27 73 1.6 1.6 0.00 0.00 0.00 86 1006.9
20260508223157 27 0 1.6 3.2 0.00 0.00 0.00 86 1006.8
20260508222656 27 44 1.6 1.6 0.00 0.00 0.00 87 1006.9
20260508222157 27 34 3.2 3.2 0.00 0.00 0.00 87 1006.8
20260508221656 27 52 1.6 1.6 0.00 0.00 0.00 87 1006.8
20260508221156 27 63 1.6 1.6 0.00 0.00 0.00 87 1006.8
20260508220656 27 17 1.6 1.6 0.00 0.00 0.00 87 1006.8
20260508220156 27 27 1.6 3.2 0.00 0.00 0.00 87 1006.8
20260508215656 27 32 1.6 3.2 0.00 0.00 0.00 87 1006.8
20260508215158 27 49 1.6 1.6 0.00 0.00 0.00 87 1006.7
20260508214656 27 44 1.6 3.2 0.00 0.00 0.00 87 1006.7
20260508214156 27 104 0.0 3.2 0.00 0.00 0.00 87 1006.6
20260508213656 27 45 1.6 3.2 0.00 0.00 0.00 87 1006.6
20260508213156 27 39 1.6 3.2 0.00 0.00 0.00 87 1006.5
20260508212656 27 52 1.6 3.2 0.00 0.00 0.00 87 1006.5
20260508212156 27 60 1.6 3.2 0.00 0.00 0.00 87 1006.5
20260508211656 27 35 0.0 1.6 0.00 0.00 0.00 87 1006.7
20260508211157 27 44 1.6 3.2 0.00 0.00 0.00 87 1006.7
20260508210656 27 66 1.6 3.2 0.00 0.00 0.00 87 1006.7
20260508210156 27 21 1.6 3.2 0.00 0.00 0.00 87 1006.7
20260508205656 27 70 0.0 1.6 0.00 0.00 0.00 87 1006.8
20260508205156 28 75 1.6 1.6 0.00 0.00 0.00 87 1006.8
20260508204656 28 29 1.6 3.2 0.00 0.00 0.00 87 1006.8
20260508204157 28 56 1.6 3.2 0.00 0.00 0.00 87 1006.9
20260508203657 28 37 1.6 3.2 0.00 0.00 0.00 87 1007.0
20260508203157 28 43 1.6 3.2 0.00 0.00 0.00 87 1007.0
20260508202656 28 40 1.6 1.6 0.00 0.00 0.00 87 1007.0
20260508202157 28 15 1.6 3.2 0.00 0.00 0.00 87 1007.1
20260508201656 28 59 1.6 3.2 0.00 0.00 0.00 86 1007.2
20260508201156 28 54 1.6 1.6 0.00 0.00 0.00 86 1007.3
20260508200656 28 23 1.6 1.6 0.00 0.00 0.00 86 1007.4
20260508200156 28 13 1.6 1.6 0.00 0.00 0.00 86 1007.4
20260508195657 28 15 1.6 1.6 0.00 0.00 0.00 86 1007.4
20260508195156 28 72 1.6 3.2 0.00 0.00 0.00 85 1007.4
20260508194656 28 53 1.6 3.2 0.00 0.00 0.00 85 1007.6
20260508194156 28 50 1.6 3.2 0.00 0.00 0.00 85 1007.6
20260508193656 28 33 1.6 1.6 0.00 0.00 0.00 85 1007.7
20260508193156 28 45 0.0 3.2 0.00 0.00 0.00 85 1007.9
20260508192657 28 55 0.0 1.6 0.00 0.00 0.00 84 1008.0
20260508192156 28 62 1.6 3.2 0.00 0.00 0.00 84 1008.1
20260508191657 28 60 1.6 3.2 0.00 0.00 0.00 84 1008.1
20260508191156 28 23 1.6 3.2 0.00 0.00 0.00 83 1008.2
20260508190657 28 51 1.6 3.2 0.00 0.00 0.00 83 1008.2
20260508190156 28 49 1.6 3.2 0.00 0.00 0.00 83 1008.3
20260508185656 28 310 1.6 3.2 0.00 0.00 0.00 82 1008.4
20260508185156 28 359 1.6 3.2 0.00 0.00 0.00 82 1008.4
20260508184656 28 35 1.6 3.2 0.00 0.00 0.00 82 1008.4
20260508184157 28 54 1.6 3.2 0.00 0.00 0.00 82 1008.3
20260508183656 28 54 1.6 3.2 0.00 0.00 0.00 82 1008.3
20260508183157 28 358 0.0 1.6 0.00 0.00 0.00 82 1008.3
20260508182656 28 122 1.6 3.2 0.00 0.00 0.25 82 1008.4
20260508182156 28 65 1.6 3.2 0.00 0.00 0.25 82 1008.6
20260508181657 28 19 1.6 3.2 0.00 0.00 0.25 82 1008.6
20260508181157 28 353 3.2 3.2 0.00 0.00 0.25 81 1008.6
20260508180656 28 62 1.6 1.6 0.00 0.00 0.25 81 1008.7
20260508180157 28 117 1.6 3.2 0.00 0.00 0.25 81 1008.7
20260508175656 28 100 1.6 4.8 0.00 0.00 0.25 81 1008.7
20260508175156 28 91 3.2 4.8 0.00 0.00 0.25 81 1008.8
20260508174657 29 91 3.2 4.8 0.00 0.00 0.25 81 1008.9
20260508174158 29 139 3.2 3.2 0.00 0.00 0.25 81 1008.9
20260508173656 29 126 1.6 3.2 0.00 0.00 0.25 80 1008.9
20260508173156 29 109 3.2 6.4 0.00 0.00 0.25 80 1008.9
20260508172657 29 96 3.2 6.4 0.00 0.00 0.25 80 1009.0
20260508172157 29 98 3.2 4.8 0.00 0.00 0.25 80 1009.0
20260508171656 29 75 1.6 3.2 0.00 0.00 0.25 79 1009.0
20260508171156 29 90 1.6 3.2 0.00 0.00 0.25 79 1009.1
20260508170657 29 93 1.6 3.2 0.00 0.00 0.25 79 1009.1
20260508170156 29 104 3.2 4.8 0.00 0.00 0.25 79 1009.1
20260508165656 29 48 0.0 1.6 0.00 0.00 0.25 79 1009.1
20260508165203 29 140 1.6 3.2 0.00 0.00 0.25 79 1009.0
20260508164659 29 93 3.2 3.2 0.00 0.00 0.25 78 1009.0
20260508164157 29 112 1.6 3.2 0.00 0.00 0.25 79 1008.9
20260508163656 29 160 1.6 4.8 0.00 0.00 0.25 79 1008.9
20260508163157 29 111 1.6 4.8 0.00 0.00 0.25 79 1008.9
20260508162657 29 130 0.0 1.6 0.00 0.00 0.25 79 1008.8
20260508162156 29 118 1.6 3.2 0.00 0.00 0.25 79 1008.8
20260508161657 29 107 3.2 4.8 0.00 0.00 0.25 79 1008.8
20260508161156 29 98 1.6 3.2 0.00 0.00 0.25 79 1008.8
20260508160656 29 156 3.2 4.8 0.00 0.00 0.25 80 1008.9
20260508160204 29 91 1.6 3.2 0.00 0.00 0.25 80 1008.9
20260508155657 29 54 0.0 3.2 0.00 0.00 0.25 80 1008.9
20260508155157 28 88 3.2 4.8 0.00 0.00 0.25 80 1008.8
20260508154657 28 130 1.6 3.2 0.00 0.00 0.25 81 1008.8
20260508153751 28 81 1.6 1.6 0.00 0.00 0.25 81 1008.8
20260508153156 28 83 1.6 4.8 0.00 0.00 0.25 81 1008.7
20260508152657 28 93 3.2 4.8 0.00 0.00 0.25 81 1008.7
20260508152157 28 20 0.0 1.6 0.00 0.00 0.25 82 1008.6
20260508151656 28 154 1.6 3.2 0.00 0.00 0.25 82 1008.6
20260508151200 28 131 3.2 3.2 0.00 0.00 0.25 82 1008.5
20260508150657 29 123 3.2 4.8 0.00 0.00 0.25 82 1008.4
20260508150156 29 162 3.2 6.4 0.00 0.00 0.25 82 1008.5
20260508145656 29 107 1.6 3.2 0.00 0.00 0.25 81 1008.5
20260508145156 29 152 3.2 4.8 0.00 0.00 0.25 81 1008.5
20260508144659 29 83 1.6 4.8 0.00 0.00 0.25 81 1008.4
20260508144156 29 128 3.2 6.4 0.00 0.00 0.25 81 1008.4
20260508143657 29 163 1.6 6.4 0.00 0.00 0.25 81 1008.4
20260508143157 29 113 1.6 4.8 0.00 0.00 0.25 82 1008.3
20260508142658 29 137 1.6 3.2 0.00 0.00 0.25 82 1008.2
20260508142157 29 97 3.2 6.4 0.00 0.00 0.25 82 1008.1
20260508141657 29 107 3.2 6.4 0.00 0.00 0.25 81 1008.1
20260508141157 29 126 1.6 4.8 0.00 0.00 0.25 81 1008.0
20260508140657 29 102 3.2 4.8 0.00 0.00 0.25 79 1008.0
20260508140159 29 113 3.2 6.4 0.00 0.00 0.25 79 1007.9
20260508135701 29 111 3.2 4.8 0.00 0.00 0.25 80 1007.8
20260508135157 29 75 3.2 6.4 0.00 0.00 0.25 80 1007.8
20260508134657 29 128 4.8 8.0 0.00 0.00 0.25 80 1007.7
20260508134156 29 95 3.2 6.4 0.00 0.00 0.25 79 1007.7
20260508133657 29 106 3.2 9.7 0.00 0.00 0.25 80 1007.6
20260508133156 29 111 8.0 11.3 0.00 0.00 0.25 79 1007.5
20260508132657 29 122 3.2 6.4 0.00 0.00 0.25 78 1007.5
20260508132157 29 97 3.2 6.4 0.00 0.00 0.25 78 1007.5
20260508131657 29 109 3.2 8.0 0.00 0.00 0.25 77 1007.5
20260508131200 29 95 4.8 9.7 0.00 0.00 0.25 77 1007.5
20260508130657 29 96 3.2 6.4 0.00 0.00 0.25 77 1007.4
20260508130157 29 72 3.2 9.7 0.00 0.00 0.25 77 1007.4
20260508125657 29 99 6.4 9.7 0.00 0.00 0.25 78 1007.3
20260508125157 29 96 4.8 9.7 0.00 0.00 0.25 79 1007.3
20260508124656 29 76 4.8 9.7 0.00 0.00 0.25 79 1007.3
20260508124156 30 90 3.2 8.0 0.00 0.00 0.25 79 1007.3
20260508123656 30 103 4.8 9.7 0.00 0.00 0.25 79 1007.1
20260508123157 30 93 6.4 9.7 0.00 0.00 0.25 79 1007.1
20260508122700 30 80 3.2 6.4 0.00 0.00 0.25 78 1007.0
20260508122157 30 98 4.8 8.0 0.00 0.00 0.25 78 1007.0
20260508121657 30 245 3.2 8.0 0.00 0.00 0.25 79 1006.9
20260508121157 30 75 4.8 11.3 0.00 0.00 0.25 78 1006.8
20260508120657 30 108 3.2 6.4 0.00 0.00 0.25 78 1006.8
20260508120157 30 101 3.2 6.4 0.00 0.00 0.25 78 1006.7
20260508115656 30 83 6.4 12.9 0.00 0.00 0.25 76 1006.7
20260508115157 30 87 3.2 6.4 0.00 0.00 0.25 76 1006.7
20260508114656 30 111 6.4 11.3 0.00 0.00 0.25 75 1006.6
20260508114157 30 102 6.4 9.7 0.00 0.00 0.25 74 1006.6
20260508113656 30 55 3.2 8.0 0.00 0.00 0.25 73 1006.5
20260508113158 30 110 4.8 6.4 0.00 0.00 0.25 72 1006.6
20260508112656 30 113 4.8 11.3 0.00 0.00 0.25 71 1006.5
20260508112157 30 95 3.2 8.0 0.00 0.00 0.25 71 1006.5
20260508111701 31 88 3.2 6.4 0.00 0.00 0.25 69 1006.6
20260508111156 31 80 4.8 8.0 0.00 0.00 0.25 67 1006.5
20260508110657 31 105 6.4 11.3 0.00 0.00 0.25 66 1006.5
20260508110156 31 141 3.2 4.8 0.00 0.00 0.25 65 1006.5
20260508105656 31 2 4.8 8.0 0.00 0.00 0.25 64 1006.4
20260508105159 31 137 3.2 4.8 0.00 0.00 0.25 63 1006.3
20260508104658 31 97 3.2 11.3 0.00 0.00 0.25 63 1006.4
20260508104156 32 93 6.4 12.9 0.00 0.00 0.25 62 1006.4
20260508103656 32 91 8.0 14.5 0.00 0.00 0.25 61 1006.5
20260508103156 32 262 4.8 6.4 0.00 0.00 0.25 60 1006.5
20260508102656 32 101 3.2 6.4 0.00 0.00 0.25 61 1006.5
20260508102156 32 151 3.2 6.4 0.00 0.00 0.25 62 1006.6
20260508101656 32 357 4.8 9.7 0.00 0.00 0.25 62 1006.6
20260508101204 32 73 3.2 4.8 0.00 0.00 0.25 62 1006.6
20260508100659 31 113 4.8 8.0 0.00 0.00 0.25 64 1006.7
20260508100157 31 107 6.4 12.9 0.00 0.00 0.25 64 1006.6
20260508095657 31 85 4.8 9.7 0.00 0.00 0.25 64 1006.7
20260508095157 31 107 6.4 11.3 0.00 0.00 0.25 65 1006.6
20260508094656 31 56 4.8 9.7 0.00 0.00 0.25 64 1006.5
20260508094156 31 85 3.2 6.4 0.00 0.00 0.25 65 1006.5
20260508093659 31 113 8.0 16.1 0.00 0.00 0.25 65 1006.6
20260508093156 31 150 3.2 3.2 0.00 0.00 0.25 67 1006.7
20260508092656 31 81 6.4 11.3 0.00 0.00 0.25 67 1006.7
20260508092157 31 113 4.8 8.0 0.00 0.00 0.25 67 1006.7
20260508091657 31 110 6.4 8.0 0.00 0.00 0.25 69 1006.6
20260508091156 31 109 4.8 12.9 0.00 0.00 0.25 68 1006.7
20260508090656 30 99 4.8 9.7 0.00 0.00 0.25 70 1006.8
20260508090157 30 75 4.8 9.7 0.00 0.00 0.25 72 1006.8
20260508085657 30 93 4.8 9.7 0.00 0.00 0.25 72 1006.8
20260508085156 30 85 4.8 9.7 0.00 0.00 0.25 72 1006.7
20260508084656 30 100 3.2 6.4 0.00 0.00 0.25 72 1006.9
20260508084156 30 73 4.8 9.7 0.00 0.00 0.25 72 1007.0
20260508083657 30 91 4.8 12.9 0.00 0.00 0.25 73 1007.0
20260508082707 30 76 6.4 11.3 0.00 0.00 0.25 74 1007.0
20260508082157 30 102 3.2 4.8 0.00 0.00 0.25 75 1007.1
20260508081657 30 119 4.8 8.0 0.00 0.00 0.25 74 1007.3
20260508081200 30 88 4.8 9.7 0.00 0.00 0.25 74 1007.3
20260508080656 30 109 4.8 11.3 0.00 0.00 0.25 74 1007.3
20260508080157 30 91 6.4 11.3 0.00 0.00 0.25 74 1007.4
20260508075657 30 80 6.4 11.3 0.00 0.00 0.25 74 1007.4
20260508075156 30 86 4.8 8.0 0.00 0.00 0.25 73 1007.5
20260508074656 30 106 6.4 12.9 0.00 0.00 0.25 72 1007.6
20260508074156 30 119 6.4 8.0 0.00 0.00 0.25 76 1007.6
20260508073656 30 82 6.4 12.9 0.00 0.00 0.25 74 1007.6
20260508073156 30 112 4.8 8.0 0.00 0.00 0.25 76 1007.6
20260508072657 31 106 6.4 12.9 0.00 0.00 0.25 76 1007.7
20260508072156 30 187 3.2 6.4 0.00 0.00 0.25 77 1007.8
20260508071657 30 74 6.4 9.7 0.00 0.00 0.25 77 1008.0
20260508071157 30 57 4.8 12.9 0.00 0.00 0.25 77 1008.2
20260508070657 30 145 3.2 3.2 0.00 0.00 0.25 79 1008.3
20260508070157 30 106 4.8 9.7 0.00 0.00 0.25 79 1008.4
20260508065657 30 116 6.4 9.7 0.00 0.00 0.25 78 1008.6
20260508065200 30 116 3.2 9.7 0.00 0.00 0.25 79 1008.6
20260508064656 30 92 9.7 17.7 0.00 0.00 0.25 78 1008.8
20260508064156 30 122 6.4 9.7 0.00 0.00 0.25 80 1008.8
20260508063657 30 104 9.7 17.7 0.00 0.00 0.25 79 1008.9
20260508063156 30 94 9.7 17.7 0.00 0.00 0.25 79 1008.9
20260508062657 30 119 8.0 14.5 0.00 0.00 0.25 79 1008.9
20260508062158 30 92 8.0 12.9 0.00 0.00 0.25 80 1009.0
20260508061657 30 106 9.7 20.9 0.00 0.00 0.25 79 1009.2
20260508061157 30 105 6.4 14.5 0.25 0.00 0.25 79 1009.4
20260508060656 30 99 9.7 16.1 0.25 0.00 0.25 79 1009.4
20260508060156 30 96 6.4 14.5 0.25 0.00 0.25 79 1009.4
20260508055656 30 90 9.7 12.9 0.25 0.00 0.25 79 1009.4
20260508055156 30 95 9.7 19.3 0.25 0.00 0.25 81 1009.5